STARLINK-30923, 58381

Orbit data source: Space-Track

STARLINK-30923, 58381 is a payload satellite owned by SpaceX/Seattle (US) in LEO that was launched on Mon, 20 Nov 2023 UTC via an FALCON 9 launch vehicle from the Air Force Western Test Range (AFWTR). Payload-class satellites include a variety of spacecraft equipped with specific instruments for various scientific and technological missions. These include communications satellites like Starlink; space stations such as the ISS; scientific satellites like the Hubble; Earth observation satellites from companies like Planet Labs, Umbra, and HawkEye 360; GPS; miniature CubeSats for education and research; and military/defense satellites.

Loading next visibility...
Identifier
58381, 2023-178H
Orbit
LEO
Country
Flag of USUS
Related business
Manufacturer
SpaceX/Seattle
Mission
Operational Commercial Communications
Bus & Motor
STARLINK V2M, Unknown motor
Mass
730 kg wet, ~700 kg dry
Launch date (UTC)
2023-11-20 (3 years ago)
Launch vehicle
FALCON 9
Launch site
Air Force Western Test Range (AFWTR)
Object type
Payload
Rocket body
Debris
Shape & HBR
Box + 2 Pan, 17.7 m
Radar Cross Section
33.884 m², Large (>1 m²)

Expand to show TLE details & history
Last TLE update: 2 days ago

TLE from 2 days ago
0 STARLINK-30923
1 58381U 23178H   26171.47870328  .00019799  00000-0  59224-3 0  9992
2 58381  53.1588 242.5484 0001609  15.0450 345.0601 15.34576565145575
Epoch: 2026-06-20T11:29Z
TLE epoch observation values (Epoch: 2026-06-20T11:29:19.963Z)
Latitude
0.00004°
Longitude
161.52251°
Altitude
462.016 km
Speed
7.637 km/s
True Right ascension
16h 10m 11s
True Declination
0° 00' 00"
Sunlit
Object was in full shadow at epoch
Visualization orbit readout
Latitude
Unknown
Longitude
Unknown
Altitude
Unknown
Speed
Unknown
Apparent Right ascension
Unknown
Apparent Declination
Unknown
Sunlit
N/A
Visualization observer readout
Local Sidereal Time
21:27:57
Azimuth
Unknown
Elevation
Unknown
Doppler factor
Unknown
Orbital elements
Apogee altitude
463.536 km
Perigee altitude
461.335 km
Semi-major axis
6,840.573 km
Eccentricity
0.00016
Inclination
53.1588°
RAAN
242.5484°
Arg. of periapsis
15.045°
True anomaly
345.05535°
Mean anomaly
345.0601°
Eccentric anomaly
345.05772°
Mean motion
3.83623 °/min
Orbital period
93.84 mins
BSTAR
0.00059224
Loading maneuver chart data...
Computing Atmospheric mass density...
Loading historical data...
Loading historical data...
Loading historical data...
Loading historical data...
Loading historical data...
Loading historical data...
Loading historical data...

Documentation

Showing up to 5 results
|